• In Romania
  • List of Countries
  • For 7 days
  • Water Temperature
  • Satellite Maps
  • Weather Map
  • Weather Widgets
  • user-avatar
    Login

    Hourly Weather Levokumka

    Today, 25 September, Tuesday

    Time Temperature Precipitation Wind Pressure Humidity
    00:00 +18°C° 0 mm 3 mps 735 mmHg 75%
    01:00 +18°C° 0 mm 3 mps 735 mmHg 75%
    02:00 +18°C° 0 mm 2 mps 735 mmHg 75%
    03:00 +17°C° 0 mm 2 mps 734 mmHg 75%
    04:00 +17°C° 0 mm 2 mps 734 mmHg 75%
    05:00 +17°C° 0 mm 2 mps 734 mmHg 75%
    06:00 +18°C° 0 mm 1 mps 734 mmHg 75%
    07:00 +20°C° 0 mm 1 mps 734 mmHg 69%
    08:00 +22°C° 0 mm 1 mps 734 mmHg 63%
    09:00 +24°C° 0 mm 1 mps 733 mmHg 57%
    10:00 +26°C° 0 mm 2 mps 733 mmHg 52%
    11:00 +27°C° 0 mm 2 mps 733 mmHg 48%
    12:00 +29°C° 0 mm 2 mps 733 mmHg 44%
    13:00 +29°C° 0 mm 2 mps 733 mmHg 42%
    14:00 +30°C° 0 mm 2 mps 733 mmHg 41%
    15:00 +30°C° 0 mm 2 mps 733 mmHg 40%
    16:00 +29°C° 0 mm 2 mps 733 mmHg 45%
    17:00 +27°C° 0 mm 2 mps 734 mmHg 50%
    18:00 +26°C° 0 mm 2 mps 734 mmHg 55%
    19:00 +24°C° 0.2 mm 3 mps 735 mmHg 62%
    20:00 +21°C° 0.2 mm 5 mps 736 mmHg 69%
    21:00 +19°C° 0.2 mm 6 mps 736 mmHg 76%
    22:00 +17°C° 0.1 mm 6 mps 737 mmHg 76%
    23:00 +16°C° 0.1 mm 5 mps 737 mmHg 76%

    Tomorrow, 26 September, Wednesday

    Time Temperature Precipitation Wind Pressure Humidity
    00:00 +16°C° 0.1 mm 5 mps 737 mmHg 76%
    01:00 +15°C° 0.2 mm 5 mps 738 mmHg 77%
    02:00 +14°C° 0.2 mm 5 mps 738 mmHg 77%
    03:00 +14°C° 0.2 mm 5 mps 738 mmHg 78%
    04:00 +13°C° 0.1 mm 4 mps 739 mmHg 76%
    05:00 +13°C° 0.1 mm 4 mps 739 mmHg 75%
    06:00 +12°C° 0.1 mm 4 mps 739 mmHg 74%
    07:00 +12°C° 0 mm 4 mps 740 mmHg 73%
    08:00 +12°C° 0 mm 4 mps 740 mmHg 73%
    09:00 +12°C° 0 mm 3 mps 741 mmHg 73%
    10:00 +12°C° 0.1 mm 3 mps 741 mmHg 72%
    11:00 +12°C° 0.1 mm 3 mps 741 mmHg 71%
    12:00 +13°C° 0.1 mm 2 mps 742 mmHg 71%
    13:00 +14°C° 0 mm 2 mps 742 mmHg 67%
    14:00 +14°C° 0 mm 2 mps 741 mmHg 64%
    15:00 +15°C° 0 mm 2 mps 741 mmHg 61%
    16:00 +15°C° 0 mm 1 mps 742 mmHg 62%
    17:00 +14°C° 0 mm 1 mps 742 mmHg 63%
    18:00 +14°C° 0 mm 1 mps 742 mmHg 64%
    19:00 +14°C° 0 mm 1 mps 742 mmHg 65%
    20:00 +14°C° 0 mm 1 mps 742 mmHg 67%
    21:00 +13°C° 0 mm 2 mps 742 mmHg 68%
    22:00 +13°C° 0 mm 2 mps 742 mmHg 69%
    23:00 +13°C° 0 mm 2 mps 742 mmHg 71%

    Day after tomorrow, 27 September, Thursday

    Time Temperature Precipitation Wind Pressure Humidity
    00:00 +12°C° 0 mm 1 mps 742 mmHg 72%
    01:00 +12°C° 0 mm 1 mps 742 mmHg 72%
    02:00 +12°C° 0 mm 2 mps 742 mmHg 73%
    03:00 +12°C° 0 mm 2 mps 742 mmHg 73%
    04:00 +11°C° 0 mm 1 mps 743 mmHg 74%
    05:00 +11°C° 0 mm 1 mps 743 mmHg 76%
    06:00 +11°C° 0 mm 1 mps 743 mmHg 78%
    07:00 +11°C° 0.3 mm 1 mps 743 mmHg 76%
    08:00 +12°C° 0.3 mm 1 mps 743 mmHg 75%
    09:00 +12°C° 0.3 mm 2 mps 743 mmHg 74%
    10:00 +14°C° 0 mm 2 mps 743 mmHg 68%
    11:00 +15°C° 0 mm 2 mps 743 mmHg 63%
    12:00 +17°C° 0 mm 3 mps 743 mmHg 58%
    13:00 +17°C° 0 mm 3 mps 742 mmHg 56%
    14:00 +18°C° 0 mm 2 mps 742 mmHg 54%
    15:00 +19°C° 0 mm 2 mps 742 mmHg 52%
    16:00 +18°C° 0 mm 2 mps 742 mmHg 56%
    17:00 +17°C° 0 mm 2 mps 742 mmHg 60%
    18:00 +16°C° 0 mm 2 mps 742 mmHg 64%
    19:00 +15°C° 0 mm 2 mps 742 mmHg 67%
    20:00 +14°C° 0 mm 1 mps 742 mmHg 69%
    21:00 +14°C° 0 mm 1 mps 742 mmHg 72%
    22:00 +14°C° 0 mm 1 mps 742 mmHg 73%
    23:00 +13°C° 0 mm 1 mps 742 mmHg 74%

    28 September, Friday

    Time Temperature Precipitation Wind Pressure Humidity
    00:00 +13°C° 0 mm 1 mps 742 mmHg 75%
    01:00 +13°C° 0 mm 1 mps 742 mmHg 76%
    02:00 +13°C° 0 mm 1 mps 742 mmHg 76%
    03:00 +13°C° 0 mm 1 mps 742 mmHg 77%
    04:00 +12°C° 0 mm 1 mps 742 mmHg 78%
    05:00 +12°C° 0 mm 1 mps 742 mmHg 79%
    06:00 +12°C° 0 mm 1 mps 742 mmHg 80%
    07:00 +14°C° 0 mm 1 mps 742 mmHg 73%
    08:00 +16°C° 0 mm 1 mps 742 mmHg 66%
    09:00 +19°C° 0 mm 1 mps 742 mmHg 60%
    10:00 +19°C° 0 mm 2 mps 741 mmHg 55%
    11:00 +20°C° 0 mm 2 mps 741 mmHg 51%
    12:00 +22°C° 0 mm 3 mps 741 mmHg 47%
    13:00 +22°C° 0 mm 3 mps 740 mmHg 46%
    14:00 +23°C° 0 mm 4 mps 740 mmHg 45%
    15:00 +23°C° 0 mm 4 mps 740 mmHg 44%
    16:00 +22°C° 0 mm 3 mps 739 mmHg 49%
    17:00 +20°C° 0 mm 3 mps 739 mmHg 53%
    18:00 +19°C° 0 mm 3 mps 739 mmHg 58%
    19:00 +18°C° 0 mm 3 mps 739 mmHg 61%
    20:00 +17°C° 0 mm 3 mps 739 mmHg 64%
    21:00 +17°C° 0 mm 2 mps 739 mmHg 66%
    22:00 +16°C° 0 mm 2 mps 738 mmHg 69%
    23:00 +16°C° 0 mm 2 mps 738 mmHg 71%

    29 September, Saturday

    Time Temperature Precipitation Wind Pressure Humidity
    00:00 +15°C° 0 mm 2 mps 738 mmHg 73%
    01:00 +15°C° 0 mm 2 mps 737 mmHg 75%
    02:00 +15°C° 0 mm 2 mps 737 mmHg 78%
    03:00 +15°C° 0 mm 2 mps 737 mmHg 80%
    04:00 +14°C° 0 mm 2 mps 737 mmHg 81%
    05:00 +14°C° 0 mm 1 mps 737 mmHg 81%
    06:00 +14°C° 0 mm 1 mps 736 mmHg 82%
    07:00 +15°C° 0 mm 1 mps 736 mmHg 78%
    08:00 +17°C° 0 mm 2 mps 736 mmHg 74%
    09:00 +19°C° 0 mm 2 mps 736 mmHg 70%
    10:00 +20°C° 0 mm 2 mps 736 mmHg 66%
    11:00 +21°C° 0 mm 3 mps 735 mmHg 63%
    12:00 +22°C° 0 mm 3 mps 735 mmHg 59%
    13:00 +24°C° 0 mm 3 mps 735 mmHg 57%
    14:00 +25°C° 0 mm 3 mps 735 mmHg 54%
    15:00 +26°C° 0 mm 3 mps 734 mmHg 52%
    16:00 +24°C° 0 mm 3 mps 734 mmHg 58%
    17:00 +23°C° 0 mm 2 mps 734 mmHg 63%
    18:00 +20°C° 0 mm 2 mps 734 mmHg 69%
    19:00 +20°C° 0 mm 2 mps 734 mmHg 71%
    20:00 +20°C° 0 mm 1 mps 735 mmHg 73%
    21:00 +20°C° 0 mm 1 mps 735 mmHg 76%
    22:00 +19°C° 0 mm 1 mps 735 mmHg 76%
    23:00 +19°C° 0 mm 1 mps 734 mmHg 77%

    30 September, Sunday

    Time Temperature Precipitation Wind Pressure Humidity
    00:00 +19°C° 0 mm 1 mps 734 mmHg 78%
    01:00 +18°C° 0 mm 1 mps 734 mmHg 78%
    02:00 +18°C° 0 mm 1 mps 734 mmHg 78%
    03:00 +18°C° 0 mm 1 mps 734 mmHg 79%
    04:00 +18°C° 0 mm 1 mps 735 mmHg 78%
    05:00 +16°C° 0 mm 1 mps 735 mmHg 78%
    06:00 +16°C° 0 mm 1 mps 735 mmHg 77%
    07:00 +19°C° 0 mm 1 mps 735 mmHg 71%
    08:00 +21°C° 0 mm 1 mps 735 mmHg 65%
    09:00 +23°C° 0 mm 1 mps 735 mmHg 59%
    10:00 +24°C° 0 mm 1 mps 735 mmHg 56%
    11:00 +25°C° 0 mm 2 mps 735 mmHg 53%
    12:00 +26°C° 0 mm 3 mps 735 mmHg 50%
    13:00 +26°C° 0 mm 3 mps 735 mmHg 49%
    14:00 +27°C° 0 mm 3 mps 735 mmHg 48%
    15:00 +27°C° 0 mm 3 mps 735 mmHg 47%
    16:00 +26°C° 0 mm 2 mps 735 mmHg 52%
    17:00 +25°C° 0 mm 2 mps 736 mmHg 57%
    18:00 +23°C° 0 mm 2 mps 736 mmHg 62%
    19:00 +21°C° 0 mm 2 mps 736 mmHg 66%
    20:00 +21°C° 0 mm 2 mps 736 mmHg 69%
    21:00 +20°C° 0 mm 2 mps 736 mmHg 73%
    22:00 +20°C° 0 mm 2 mps 736 mmHg 73%
    23:00 +20°C° 0 mm 2 mps 736 mmHg 74%
    Show more